Meteo pe oră la Bolshoe Beresnevo

Astăzi, 9 Mai, Duminică

Timp Temperatura Precipitaţii Vânt Presiune Umiditate
00:00 +1°C° 0 mm 4 m/s 736 mmHg 79%
01:00 0°C° 0 mm 4 m/s 736 mmHg 83%
02:00 -1°C° 0 mm 4 m/s 737 mmHg 87%
03:00 -1°C° 0 mm 4 m/s 737 mmHg 88%
04:00 -1°C° 0 mm 4 m/s 738 mmHg 88%
05:00 -1°C° 0 mm 4 m/s 738 mmHg 88%
06:00 0°C° 0 mm 4 m/s 739 mmHg 79%
07:00 +3°C° 0 mm 4 m/s 739 mmHg 69%
08:00 +3°C° 0 mm 5 m/s 740 mmHg 60%
09:00 +6°C° 0 mm 5 m/s 740 mmHg 54%
10:00 +7°C° 0 mm 5 m/s 741 mmHg 48%
11:00 +8°C° 0 mm 5 m/s 741 mmHg 42%
12:00 +9°C° 0 mm 5 m/s 741 mmHg 40%
13:00 +9°C° 0 mm 5 m/s 742 mmHg 37%
14:00 +10°C° 0 mm 5 m/s 742 mmHg 34%
15:00 +11°C° 0 mm 4 m/s 742 mmHg 36%
16:00 +11°C° 0 mm 4 m/s 743 mmHg 39%
17:00 +11°C° 0 mm 3 m/s 743 mmHg 41%
18:00 +9°C° 0 mm 2 m/s 744 mmHg 48%
19:00 +7°C° 0 mm 2 m/s 744 mmHg 55%
20:00 +6°C° 0 mm 1 m/s 745 mmHg 63%
21:00 +5°C° 0 mm 1 m/s 745 mmHg 64%
22:00 +5°C° 0 mm 1 m/s 745 mmHg 66%
23:00 +4°C° 0 mm 1 m/s 746 mmHg 68%

Mâine, 10 Mai, Luni

Timp Temperatura Precipitaţii Vânt Presiune Umiditate
00:00 +4°C° 0 mm 1 m/s 746 mmHg 70%
01:00 +3°C° 0 mm 1 m/s 747 mmHg 72%
02:00 +3°C° 0 mm 1 m/s 747 mmHg 75%
03:00 +3°C° 0 mm 1 m/s 747 mmHg 74%
04:00 +4°C° 0 mm 1 m/s 748 mmHg 73%
05:00 +4°C° 0 mm 1 m/s 748 mmHg 73%
06:00 +6°C° 0 mm 1 m/s 748 mmHg 65%
07:00 +8°C° 0 mm 1 m/s 748 mmHg 58%
08:00 +10°C° 0 mm 2 m/s 749 mmHg 51%
09:00 +12°C° 0 mm 2 m/s 749 mmHg 47%
10:00 +13°C° 0 mm 2 m/s 749 mmHg 42%
11:00 +14°C° 0 mm 2 m/s 749 mmHg 38%
12:00 +15°C° 0 mm 2 m/s 748 mmHg 38%
13:00 +16°C° 0 mm 2 m/s 748 mmHg 37%
14:00 +16°C° 0 mm 1 m/s 748 mmHg 37%
15:00 +16°C° 0 mm 1 m/s 748 mmHg 39%
16:00 +16°C° 0 mm 1 m/s 748 mmHg 41%
17:00 +16°C° 0 mm 1 m/s 748 mmHg 43%
18:00 +14°C° 0 mm 1 m/s 748 mmHg 51%
19:00 +11°C° 0 mm 1 m/s 748 mmHg 59%
20:00 +9°C° 0 mm 1 m/s 748 mmHg 68%
21:00 +9°C° 0 mm 1 m/s 748 mmHg 69%
22:00 +8°C° 0 mm 1 m/s 748 mmHg 71%
23:00 +7°C° 0 mm 1 m/s 748 mmHg 73%

Poimâine, 11 Mai, Marţi

Timp Temperatura Precipitaţii Vânt Presiune Umiditate
00:00 +7°C° 0 mm 1 m/s 749 mmHg 74%
01:00 +6°C° 0 mm 1 m/s 749 mmHg 74%
02:00 +6°C° 0 mm 1 m/s 749 mmHg 74%
03:00 +6°C° 0 mm 1 m/s 749 mmHg 74%
04:00 +6°C° 0 mm 1 m/s 749 mmHg 74%
05:00 +5°C° 0 mm 2 m/s 749 mmHg 74%
06:00 +7°C° 0 mm 2 m/s 749 mmHg 66%
07:00 +9°C° 0 mm 2 m/s 749 mmHg 58%
08:00 +12°C° 0 mm 3 m/s 749 mmHg 50%
09:00 +13°C° 0 mm 3 m/s 749 mmHg 46%
10:00 +14°C° 0 mm 3 m/s 748 mmHg 41%
11:00 +17°C° 0 mm 3 m/s 748 mmHg 36%
12:00 +18°C° 0 mm 3 m/s 748 mmHg 36%
13:00 +18°C° 0 mm 3 m/s 748 mmHg 36%
14:00 +19°C° 0 mm 3 m/s 747 mmHg 36%
15:00 +19°C° 0 mm 3 m/s 747 mmHg 42%
16:00 +18°C° 0 mm 3 m/s 747 mmHg 48%
17:00 +18°C° 0 mm 3 m/s 747 mmHg 53%
18:00 +16°C° 0 mm 3 m/s 747 mmHg 62%
19:00 +14°C° 0 mm 2 m/s 747 mmHg 71%
20:00 +12°C° 0 mm 2 m/s 747 mmHg 80%
21:00 +12°C° 0 mm 2 m/s 747 mmHg 84%
22:00 +10°C° 0 mm 2 m/s 746 mmHg 88%
23:00 +10°C° 0 mm 2 m/s 746 mmHg 92%

12 Mai, Miercuri

Timp Temperatura Precipitaţii Vânt Presiune Umiditate
00:00 +9°C° 0 mm 2 m/s 746 mmHg 93%
01:00 +9°C° 0 mm 2 m/s 746 mmHg 95%
02:00 +9°C° 0 mm 2 m/s 746 mmHg 96%
03:00 +10°C° 0 mm 1 m/s 746 mmHg 96%
04:00 +10°C° 0 mm 1 m/s 746 mmHg 96%
05:00 +11°C° 0 mm 1 m/s 746 mmHg 96%
06:00 +11°C° 0 mm 1 m/s 745 mmHg 93%
07:00 +12°C° 0 mm 1 m/s 745 mmHg 89%
08:00 +13°C° 0 mm 2 m/s 745 mmHg 85%
09:00 +12°C° 0.3 mm 2 m/s 745 mmHg 88%
10:00 +10°C° 0.3 mm 3 m/s 745 mmHg 90%
11:00 +9°C° 0.3 mm 3 m/s 744 mmHg 92%
12:00 +9°C° 0.3 mm 2 m/s 744 mmHg 91%
13:00 +9°C° 0.3 mm 2 m/s 744 mmHg 89%
14:00 +10°C° 0.3 mm 1 m/s 744 mmHg 88%
15:00 +10°C° 0 mm 2 m/s 744 mmHg 85%
16:00 +12°C° 0 mm 2 m/s 743 mmHg 83%
17:00 +11°C° 0 mm 3 m/s 743 mmHg 81%
18:00 +10°C° 0 mm 2 m/s 743 mmHg 85%
19:00 +9°C° 0 mm 2 m/s 742 mmHg 90%
20:00 +8°C° 0 mm 2 m/s 742 mmHg 94%
21:00 +8°C° 0 mm 2 m/s 742 mmHg 95%
22:00 +8°C° 0 mm 3 m/s 741 mmHg 96%
23:00 +8°C° 0 mm 3 m/s 741 mmHg 96%

13 Mai, Joi

Timp Temperatura Precipitaţii Vânt Presiune Umiditate
00:00 +8°C° 0 mm 3 m/s 741 mmHg 96%
01:00 +7°C° 0 mm 4 m/s 740 mmHg 95%
02:00 +7°C° 0 mm 4 m/s 740 mmHg 95%
03:00 +7°C° 0.1 mm 4 m/s 740 mmHg 94%
04:00 +8°C° 0.1 mm 4 m/s 739 mmHg 93%
05:00 +8°C° 0.1 mm 4 m/s 739 mmHg 92%
06:00 +9°C° 0.1 mm 5 m/s 739 mmHg 87%
07:00 +9°C° 0.1 mm 5 m/s 739 mmHg 82%
08:00 +10°C° 0.1 mm 5 m/s 739 mmHg 77%
09:00 +11°C° 0 mm 6 m/s 740 mmHg 69%
10:00 +13°C° 0 mm 6 m/s 740 mmHg 61%
11:00 +14°C° 0 mm 6 m/s 740 mmHg 53%
12:00 +15°C° 0 mm 6 m/s 740 mmHg 53%
13:00 +15°C° 0 mm 5 m/s 740 mmHg 54%
14:00 +15°C° 0 mm 5 m/s 740 mmHg 54%
15:00 +15°C° 0 mm 4 m/s 740 mmHg 57%
16:00 +15°C° 0 mm 4 m/s 740 mmHg 61%
17:00 +16°C° 0 mm 3 m/s 740 mmHg 64%
18:00 +15°C° 0 mm 2 m/s 740 mmHg 72%
19:00 +14°C° 0 mm 2 m/s 739 mmHg 80%
20:00 +12°C° 0 mm 1 m/s 739 mmHg 87%
21:00 +12°C° 0.2 mm 2 m/s 739 mmHg 90%
22:00 +12°C° 0.2 mm 2 m/s 739 mmHg 93%
23:00 +12°C° 0.2 mm 2 m/s 739 mmHg 96%

14 Mai, Vineri

Timp Temperatura Precipitaţii Vânt Presiune Umiditate
00:00 +12°C° 0.1 mm 2 m/s 738 mmHg 96%
01:00 +11°C° 0.1 mm 3 m/s 738 mmHg 95%
02:00 +11°C° 0.1 mm 3 m/s 737 mmHg 95%
03:00 +11°C° 0 mm 3 m/s 737 mmHg 94%
04:00 +11°C° 0 mm 3 m/s 737 mmHg 94%
05:00 +11°C° 0 mm 3 m/s 737 mmHg 93%
06:00 +12°C° 0.4 mm 4 m/s 736 mmHg 92%
07:00 +13°C° 0.4 mm 4 m/s 736 mmHg 91%
08:00 +14°C° 0.4 mm 4 m/s 736 mmHg 90%
09:00 +14°C° 0.1 mm 4 m/s 736 mmHg 89%
10:00 +15°C° 0.1 mm 4 m/s 736 mmHg 87%
11:00 +17°C° 0.1 mm 3 m/s 736 mmHg 86%
12:00 +17°C° 0.4 mm 4 m/s 736 mmHg 85%
13:00 +17°C° 0.4 mm 4 m/s 736 mmHg 84%
14:00 +18°C° 0.4 mm 4 m/s 736 mmHg 83%
15:00 +17°C° 0.5 mm 3 m/s 736 mmHg 84%
16:00 +17°C° 0.5 mm 3 m/s 736 mmHg 85%
17:00 +17°C° 0.5 mm 2 m/s 736 mmHg 85%
18:00 +16°C° 0.2 mm 2 m/s 736 mmHg 89%
19:00 +15°C° 0.2 mm 2 m/s 736 mmHg 92%
20:00 +14°C° 0.2 mm 1 m/s 736 mmHg 96%
21:00 +13°C° 0 mm 1 m/s 736 mmHg 96%
22:00 +13°C° 0 mm 1 m/s 736 mmHg 96%
23:00 +13°C° 0 mm 1 m/s 736 mmHg 96%
Arată mai mult

Formular de consimțământ

Meteoprog și furnizorii noștri de servicii pot stoca și accesa date personale, precum cookies, identificatori de dispozitiv sau alte tehnologii similare pe dispozitivul dumneavoastră și procesa astfel de date pentru a personaliza conținutul și reclamele, dar și pentru a oferi caracteristici de social media și pentru a analiza traficul.

  • Stocarea și/sau accesarea informațiilor pe dispozitivul dumneavoastră

    Cookies, identificatori de dispozitiv sau alte informații pot fi stocate sau accesate pe dispozitiv în scopurile indicate mai sus.

  • Reclame și conținut personalizat, evaluarea reclamelor și a conținutului, informații despre audiențe și dezvoltarea produselor

    Reclamele și conținutul pot fi personalizate pe baza unui profil. Pot fi adăugate date suplimentare pentru a personaliza mai bine reclamele și conținutul. Performanța reclamelor și conținutului poate fi măsurată. Pot fi obținute informații despre utilizatorii care au văzut reclamele și conținutul. Aceste date pot fi utilizate pentru a dezvolta sau îmbunătăți experiența utilizatorilor, sistemele și software-ul.

Dând clic pe ‘Sunt de acord’, permiteți utilizarea cookie-urilor menționate, a identificatorilor de dispozitiv, balizelor web sau altor tehnologii similare. Setările pot fi modificate din browser-ul dispozitivului dumneavoastră.

În anumite scopuri, interesele legitime pot prima asupra consimțământului. Puteți citi mai multe informații în acest sens în Politica privind Confidențialitatea Datelor și Cookie.